sat.trackr.live / text

‹ back to catalog

STARLINK-32285

NORAD 60355 · 2024-138A

PAYLOAD ACTIVE UNKNOWN

§ Identity

Operator
Country
US
Launch date
2024-08-04
Launch site
AFWTR
Launch vehicle
Mass (kg)
RCS (m²)

Purposes: comms

External: N2YO · Heavens-Above · Gunter

§ Orbital elements

Epoch: 2026-09-21T21:27:47.153664Z

Period
93.85 min
Inclination
53.1604°
Eccentricity
0.0001537
Mean motion
15.34384964 rev/d
Perigee alt
461.7 km
Apogee alt
463.8 km
Semi-major
6,840.9 km
B*
9.0686e-6
RAAN
114.9748°
Arg perigee
90.7105°
Mean anomaly
269.4074°
Rev number
12,071

§ Raw data

STARLINK-322851 60355U 24138A   26264.89429576 -.00000070  00000+0  90686-5 0  99982 60355  53.1604 114.9748 0001537  90.7105 269.4074 15.34384964120712

JSON: /api/v1/satellites/60355 · /tle

For live sub-satellite position, see the globe view (requires WebGL).

§ Visibility from observer

Set your observer location to see the next 7 days of passes ≥ 10°. The values pass through the URL so the page stays shareable.

No JS? Fill the form by hand. The geolocation button needs JavaScript.